Location: New Greens
(51.7702°N, 0.3379°W)
Time: 02:02:30
(UTC+00:00)

Envisat - Pass Details

Date: 25 January 2019
Orbit: 764 x 766 km, 98.2° (Epoch: 16 February)

Event Time Altitude Azimuth Distance (km) Brightness Sun altitude
Rises 06:57:14 0° 20° (NNE) 3,246 6.3 -8.3°
Reaches altitude 10° 06:59:47 10° 31° (NNE) 2,314 5.6 -8.0°
Maximum altitude 07:04:22 33° 95° (E) 1,272 5.0 -7.3°
Drops below altitude 10° 07:08:55 10° 159° (SSE) 2,298 6.2 -6.7°
Sets 07:11:26 0° 169° (SSE) 3,219 6.8 -6.3°
